Time,TemperatureF,DewpointF,PressureIn,WindDirection,WindDirectionDegrees,WindSpeedMPH,WindSpeedGustMPH,Humidity,HourlyPrecipIn,Conditions,Clouds,dailyrainin,SoftwareType,DateUTC
2013-04-15 00:15:00,34.9,26.8,30.15,North,0,0.0,-999.0,72,-99.99,,,0.00,Acu-Link.com,2013-04-15 04:15:00,
2013-04-15 00:30:00,35.1,26.7,30.16,NNE,22,0.0,-999.0,71,-99.99,,,0.00,Acu-Link.com,2013-04-15 04:30:00,
2013-04-15 00:45:00,34.7,26.3,30.17,East,90,0.0,-999.0,71,-99.99,,,0.00,Acu-Link.com,2013-04-15 04:45:00,
2013-04-15 01:00:00,34.0,26.6,30.16,NE,45,0.0,-999.0,74,-99.99,,,0.00,Acu-Link.com,2013-04-15 05:00:00,
2013-04-15 01:15:00,34.0,26.3,30.17,North,0,0.0,-999.0,73,-99.99,,,0.00,Acu-Link.com,2013-04-15 05:15:00,
2013-04-15 01:31:00,33.6,26.2,30.17,SSE,157,0.0,-999.0,74,-99.99,,,0.00,Acu-Link.com,2013-04-15 05:31:00,
2013-04-15 01:46:00,32.9,26.2,30.18,SW,225,0.0,-999.0,76,-99.99,,,0.00,Acu-Link.com,2013-04-15 05:46:00,
2013-04-15 02:01:00,32.7,26.3,30.17,ENE,67,0.0,-999.0,77,-99.99,,,0.00,Acu-Link.com,2013-04-15 06:01:00,
2013-04-15 02:32:00,32.9,26.8,30.17,East,90,0.0,-999.0,78,-99.99,,,0.00,Acu-Link.com,2013-04-15 06:32:00,
2013-04-15 02:47:00,33.8,27.1,30.17,ESE,112,0.0,-999.0,76,-99.99,,,0.00,Acu-Link.com,2013-04-15 06:47:00,
2013-04-15 03:02:00,33.8,27.1,30.17,East,90,0.0,-999.0,76,-99.99,,,0.00,Acu-Link.com,2013-04-15 07:02:00,
2013-04-15 04:03:00,33.6,27.5,30.19,East,90,0.0,-999.0,78,-99.99,,,0.00,Acu-Link.com,2013-04-15 08:03:00,
2013-04-15 04:18:00,33.6,27.5,30.19,East,90,0.0,-999.0,78,-99.99,,,0.00,Acu-Link.com,2013-04-15 08:18:00,
2013-04-15 04:33:00,33.8,27.7,30.19,East,90,0.0,-999.0,78,-99.99,,,0.00,Acu-Link.com,2013-04-15 08:33:00,
2013-04-15 04:49:00,33.8,28.0,30.19,East,90,0.0,-999.0,79,-99.99,,,0.00,Acu-Link.com,2013-04-15 08:49:00,
2013-04-15 05:04:00,33.8,28.3,30.20,NE,45,0.0,-999.0,80,-99.99,,,0.00,Acu-Link.com,2013-04-15 09:04:00,
2013-04-15 05:19:00,34.0,28.5,30.20,East,90,0.0,-999.0,80,-99.99,,,0.00,Acu-Link.com,2013-04-15 09:19:00,
2013-04-15 05:34:00,34.0,28.5,30.21,East,90,0.0,-999.0,80,-99.99,,,0.00,Acu-Link.com,2013-04-15 09:34:00,
2013-04-15 05:50:00,34.0,28.5,30.22,East,90,0.0,-999.0,80,-99.99,,,0.00,Acu-Link.com,2013-04-15 09:50:00,
2013-04-15 06:05:00,33.8,28.6,30.24,ENE,67,0.0,-999.0,81,-99.99,,,0.00,Acu-Link.com,2013-04-15 10:05:00,
2013-04-15 06:20:00,33.8,28.6,30.24,East,90,0.0,-999.0,81,-99.99,,,0.00,Acu-Link.com,2013-04-15 10:20:00,
2013-04-15 06:35:00,33.8,28.6,30.25,East,90,0.0,-999.0,81,-99.99,,,0.00,Acu-Link.com,2013-04-15 10:35:00,
2013-04-15 06:50:00,34.0,29.1,30.27,East,90,0.0,-999.0,82,-99.99,,,0.00,Acu-Link.com,2013-04-15 10:50:00,
2013-04-15 07:06:00,34.7,29.5,30.28,SE,135,0.0,-999.0,81,-99.99,,,0.00,Acu-Link.com,2013-04-15 11:06:00,
2013-04-15 07:36:00,36.7,30.8,30.28,SSW,202,0.0,-999.0,79,-99.99,,,0.00,Acu-Link.com,2013-04-15 11:36:00,
2013-04-15 08:22:00,41.0,32.7,30.29,SSW,202,0.0,-999.0,72,-99.99,,,0.00,Acu-Link.com,2013-04-15 12:22:00,
2013-04-15 08:52:00,44.2,32.0,30.29,East,90,2.2,-999.0,62,-99.99,,,0.00,Acu-Link.com,2013-04-15 12:52:00,
2013-04-15 09:08:00,46.4,32.4,30.29,SW,225,1.7,-999.0,58,-99.99,,,0.00,Acu-Link.com,2013-04-15 13:08:00,
2013-04-15 09:23:00,46.9,32.0,30.30,East,90,1.1,-999.0,56,-99.99,,,0.00,Acu-Link.com,2013-04-15 13:23:00,
2013-04-15 09:38:00,46.8,33.2,30.31,SE,135,2.2,-999.0,59,-99.99,,,0.00,Acu-Link.com,2013-04-15 13:38:00,
2013-04-15 09:53:00,47.5,33.5,30.32,East,90,1.7,-999.0,58,-99.99,,,0.00,Acu-Link.com,2013-04-15 13:53:00,
2013-04-15 10:08:00,48.9,33.0,30.31,ENE,67,3.2,-999.0,54,-99.99,,,0.00,Acu-Link.com,2013-04-15 14:08:00,
2013-04-15 10:24:00,48.9,33.0,30.31,SW,225,2.2,-999.0,54,-99.99,,,0.00,Acu-Link.com,2013-04-15 14:24:00,
2013-04-15 10:39:00,49.6,32.2,30.31,North,0,1.7,-999.0,51,-99.99,,,0.00,Acu-Link.com,2013-04-15 14:39:00,
2013-04-15 10:54:00,51.1,33.1,30.32,SSW,202,0.0,-999.0,50,-99.99,,,0.00,Acu-Link.com,2013-04-15 14:54:00,
2013-04-15 11:09:00,48.7,31.4,30.32,WSW,247,2.2,-999.0,51,-99.99,,,0.00,Acu-Link.com,2013-04-15 15:09:00,
2013-04-15 11:24:00,51.8,33.8,30.31,South,180,1.1,-999.0,50,-99.99,,,0.00,Acu-Link.com,2013-04-15 15:24:00,
2013-04-15 11:40:00,51.1,32.1,30.30,NW,315,3.7,-999.0,48,-99.99,,,0.00,Acu-Link.com,2013-04-15 15:40:00,
2013-04-15 11:55:00,51.8,32.2,30.29,SW,225,3.2,-999.0,47,-99.99,,,0.00,Acu-Link.com,2013-04-15 15:55:00,
2013-04-15 12:10:00,52.7,31.4,30.29,SW,225,1.7,-999.0,44,-99.99,,,0.00,Acu-Link.com,2013-04-15 16:10:00,
2013-04-15 12:25:00,54.7,32.6,30.30,NNW,337,0.0,-999.0,43,-99.99,,,0.00,Acu-Link.com,2013-04-15 16:25:00,
2013-04-15 12:40:00,54.1,31.5,30.28,SSW,202,1.7,-999.0,42,-99.99,,,0.00,Acu-Link.com,2013-04-15 16:40:00,
2013-04-15 12:56:00,54.3,32.3,30.29,SSE,157,0.0,-999.0,43,-99.99,,,0.00,Acu-Link.com,2013-04-15 16:56:00,
2013-04-15 13:11:00,55.0,31.7,30.28,SSW,202,4.2,-999.0,41,-99.99,,,0.00,Acu-Link.com,2013-04-15 17:11:00,
2013-04-15 13:26:00,55.6,31.7,30.28,ESE,112,1.7,-999.0,40,-99.99,,,0.00,Acu-Link.com,2013-04-15 17:26:00,
2013-04-15 14:27:00,55.6,32.3,30.27,West,270,2.7,-999.0,41,-99.99,,,0.00,Acu-Link.com,2013-04-15 18:27:00,
2013-04-15 14:42:00,57.4,33.9,30.26,WSW,247,2.2,-999.0,41,-99.99,,,0.00,Acu-Link.com,2013-04-15 18:42:00,
2013-04-15 14:57:00,57.0,32.9,30.25,NNE,22,4.7,-999.0,40,-99.99,,,0.00,Acu-Link.com,2013-04-15 18:57:00,
2013-04-15 15:13:00,59.9,34.2,30.25,South,180,2.2,-999.0,38,-99.99,,,0.00,Acu-Link.com,2013-04-15 19:13:00,
2013-04-15 15:28:00,57.9,34.3,30.25,East,90,1.7,-999.0,41,-99.99,,,0.00,Acu-Link.com,2013-04-15 19:28:00,
2013-04-15 15:43:00,60.4,36.6,30.24,SSW,202,1.7,-999.0,41,-99.99,,,0.00,Acu-Link.com,2013-04-15 19:43:00,
2013-04-15 15:58:00,60.3,36.5,30.24,West,270,1.1,-999.0,41,-99.99,,,0.00,Acu-Link.com,2013-04-15 19:58:00,
2013-04-15 16:13:00,61.5,35.7,30.23,SE,135,0.0,-999.0,38,-99.99,,,0.00,Acu-Link.com,2013-04-15 20:13:00,
2013-04-15 16:29:00,61.5,36.3,30.24,SSW,202,1.7,-999.0,39,-99.99,,,0.00,Acu-Link.com,2013-04-15 20:29:00,
2013-04-15 16:44:00,64.6,37.0,30.23,South,180,1.7,-999.0,36,-99.99,,,0.00,Acu-Link.com,2013-04-15 20:44:00,
2013-04-15 16:59:00,62.6,36.6,30.23,WNW,292,3.7,-999.0,38,-99.99,,,0.00,Acu-Link.com,2013-04-15 20:59:00,
2013-04-15 17:14:00,63.3,36.6,30.24,South,180,2.7,-999.0,37,-99.99,,,0.00,Acu-Link.com,2013-04-15 21:14:00,
2013-04-15 17:29:00,63.5,36.8,30.23,SSW,202,3.7,-999.0,37,-99.99,,,0.00,Acu-Link.com,2013-04-15 21:29:00,
2013-04-15 17:45:00,62.2,36.9,30.24,ESE,112,3.7,-999.0,39,-99.99,,,0.00,Acu-Link.com,2013-04-15 21:45:00,
2013-04-15 18:00:00,62.8,36.1,30.25,ESE,112,2.7,-999.0,37,-99.99,,,0.00,Acu-Link.com,2013-04-15 22:00:00,
2013-04-15 18:15:00,59.0,34.7,30.26,South,180,1.7,-999.0,40,-99.99,,,0.00,Acu-Link.com,2013-04-15 22:15:00,
2013-04-15 18:31:00,57.7,34.8,30.24,SSW,202,2.2,-999.0,42,-99.99,,,0.00,Acu-Link.com,2013-04-15 22:31:00,
2013-04-15 18:46:00,54.9,34.0,30.27,SSW,202,3.2,-999.0,45,-99.99,,,0.00,Acu-Link.com,2013-04-15 22:46:00,
2013-04-15 19:01:00,52.3,33.7,30.26,SW,225,2.7,-999.0,49,-99.99,,,0.00,Acu-Link.com,2013-04-15 23:01:00,
2013-04-15 19:16:00,50.9,32.9,30.29,SE,135,1.7,-999.0,50,-99.99,,,0.00,Acu-Link.com,2013-04-15 23:16:00,
2013-04-15 19:31:00,49.3,32.9,30.29,SW,225,0.0,-999.0,53,-99.99,,,0.00,Acu-Link.com,2013-04-15 23:31:00,
2013-04-15 19:47:00,48.2,32.8,30.30,ENE,67,2.7,-999.0,55,-99.99,,,0.00,Acu-Link.com,2013-04-15 23:47:00,
2013-04-15 20:02:00,47.1,33.1,30.30,NNE,22,0.0,-999.0,58,-99.99,,,0.00,Acu-Link.com,2013-04-16 00:02:00,
2013-04-15 20:17:00,46.6,33.5,30.30,SE,135,0.0,-999.0,60,-99.99,,,0.00,Acu-Link.com,2013-04-16 00:17:00,
2013-04-15 20:32:00,45.7,33.8,30.29,ENE,67,0.0,-999.0,63,-99.99,,,0.00,Acu-Link.com,2013-04-16 00:32:00,
2013-04-15 20:47:00,45.0,34.7,30.29,SSE,157,0.0,-999.0,67,-99.99,,,0.00,Acu-Link.com,2013-04-16 00:47:00,
2013-04-15 21:03:00,44.4,34.5,30.31,West,270,1.1,-999.0,68,-99.99,,,0.00,Acu-Link.com,2013-04-16 01:03:00,
2013-04-15 21:18:00,43.9,34.8,30.31,ESE,112,1.1,-999.0,70,-99.99,,,0.00,Acu-Link.com,2013-04-16 01:18:00,
2013-04-15 21:33:00,43.3,34.9,30.32,SSE,157,0.0,-999.0,72,-99.99,,,0.00,Acu-Link.com,2013-04-16 01:33:00,
2013-04-15 21:48:00,42.8,35.1,30.32,East,90,0.0,-999.0,74,-99.99,,,0.00,Acu-Link.com,2013-04-16 01:48:00,
2013-04-15 22:04:00,42.6,35.2,30.33,South,180,0.0,-999.0,75,-99.99,,,0.00,Acu-Link.com,2013-04-16 02:04:00,
2013-04-15 22:19:00,41.9,35.6,30.32,SSW,202,0.0,-999.0,78,-99.99,,,0.00,Acu-Link.com,2013-04-16 02:19:00,
2013-04-15 22:34:00,41.5,36.1,30.33,ESE,112,0.0,-999.0,81,-99.99,,,0.00,Acu-Link.com,2013-04-16 02:34:00,
2013-04-15 22:49:00,41.2,36.1,30.33,ENE,67,0.0,-999.0,82,-99.99,,,0.00,Acu-Link.com,2013-04-16 02:49:00,
2013-04-15 23:04:00,40.6,36.5,30.32,ENE,67,0.0,-999.0,85,-99.99,,,0.00,Acu-Link.com,2013-04-16 03:04:00,
2013-04-15 23:20:00,40.3,36.7,30.32,SSW,202,0.0,-999.0,87,-99.99,,,0.00,Acu-Link.com,2013-04-16 03:20:00,
2013-04-15 23:35:00,40.3,37.3,30.33,SW,225,0.0,-999.0,89,-99.99,,,0.00,Acu-Link.com,2013-04-16 03:35:00,
2013-04-15 23:50:00,40.1,37.7,30.33,SE,135,0.0,-999.0,91,-99.99,,,0.00,Acu-Link.com,2013-04-16 03:50:00,